Preview of NWS' New Version of Forecast
This preview is not operational and should not be used for support decisions.

Regional Weather Roundup (RWR)

Issued by National Weather Service (NWS)

                            
000
ASUS43 KLSX 181957
RWRMO 

WEATHER SUMMARY FOR MISSOURI
NATIONAL WEATHER SERVICE SPRINGFIELD MO
200 PM CST MON FEB 18 2019

NOTE: "FAIR" INDICATES FEW OR NO CLOUDS BELOW 12,000 FEET WITH NO
       SIGNIFICANT WEATHER AND/OR OBSTRUCTIONS TO VISIBILITY.
       CURRENT SKY AND/OR WEATHER CONDITIONS ARE NOT AVAILABLE FOR
       CHILLICOTHE AND FARMINGTON.

MOZ001>031-035>038-043-044-053-054-182100-
...NORTHERN AND WESTERN MISSOURI...
  
CITY           SKY/WX    TMP DP  RH WIND       PRES   REMARKS
KANSAS CTY INT PTSUNNY   24  15  68 N10       30.48S WCI  14          
KANSAS C DTWN  MOSUNNY   25  16  68 NW8       30.48F WCI  16          
LEE'S SUMMIT   PTSUNNY   25  16  68 N8        30.46F WCI  16          
ST JOSEPH      PTSUNNY   24  17  74 NW8       30.50F WCI  15          
CHILLICOTHE      N/A     27  17  66 N5        30.50R WCI  22          
     
$$
MOZ066>068-077>081-088>096-101>105-182100-
...SOUTHWEST MISSOURI...
  
CITY           SKY/WX    TMP DP  RH WIND       PRES   REMARKS
SPRINGFIELD    SUNNY     33  19  56 VRB7      30.41S WCI  27          
BRANSON        PTSUNNY   32  18  55 N9        30.41S WCI  24          
               
$$
MOZ032>034-039>042-045>050-055>058-069>072-182100-
...CENTRAL MISSOURI...  
  
CITY           SKY/WX    TMP DP  RH WIND       PRES   REMARKS
COLUMBIA       NOT AVBL                                               
JEFFERSON CITY CLOUDY    29  17  61 W6        30.47S WCI  23          
ROLLA          PTSUNNY   28  17  63 N6        30.42S WCI  22          
OSAGE BEACH    MOSUNNY   28  18  64 VRB6      30.46S WCI  22          
               
$$
MOZ051-052-059>065-182100-
...EAST CENTRAL MISSOURI...
  
CITY           SKY/WX    TMP DP  RH WIND       PRES   REMARKS
ST LOUIS INTL  CLOUDY    30  20  66 W9        30.45R WCI  22          
                   
$$
MOZ072>076-082>087-097>100-106>115-182100-
...SOUTH CENTRAL AND SOUTHEAST MISSOURI...
  
CITY           SKY/WX    TMP DP  RH WIND       PRES   REMARKS
CAPE GIRARDEAU PTSUNNY   35  21  56 N6        30.43S                  
POPLAR BLUFF   FAIR      38  25  59 CALM      30.42S                  
WEST PLAINS    MOSUNNY   35  23  61 VRB5      30.40R                  
                                       
$$